Hourly Data Report for October 28, 2014

All times are specified in Local Standard Time (LST). Add 1 hour to adjust for Daylight Saving Time where and when it is observed.

OTTAWA INTL A
ONTARIO

45°19'00.000" N
75°40'00.000" W
114.90 m
6106001
71628
YOW

Download Data

Hourly Data (October 2014)
Hourly Data Report for October 28, 2014
Temp Definition
°C
Dew Point Temp Definition
°C
Rel Hum Definition
%
Wind Dir Definition
10's deg

Wind Spd Definition
km/h
Visibility Definition
km
Stn Press Definition
kPa
Hmdx Definition


Wind Chill Definition


Weather Definition


TIME
00:00 Legend Double Dagger 6.4 5.7 95 7 11 16.1 100.16     Rain
01:00 Legend Double Dagger 6.3 5.7 96 8 15 16.1 100.09     Cloudy
02:00 Legend Double Dagger 6.4 5.8 96 10 10 24.1 100.09     Rain
03:00 Legend Double Dagger 6.5 5.8 95 6 17 16.1 100.00     Rain
04:00 Legend Double Dagger 6.5 5.8 95 8 17 24.1 99.93     Cloudy
05:00 Legend Double Dagger 6.8 5.9 94 9 16 24.1 99.90     LegendNANA
06:00 Legend Double Dagger 6.9 5.7 92 8 16 24.1 99.91     LegendNANA
07:00 Legend Double Dagger 6.8 5.9 94 6 19 16.1 99.86     Rain
08:00 Legend Double Dagger 7.0 6.1 94 8 22 24.1 99.83     LegendNANA
09:00 Legend Double Dagger 7.4 6.5 94 8 21 24.1 99.84     LegendNANA
10:00 Legend Double Dagger 7.6 6.6 93 7 19 24.1 99.79     Cloudy
11:00 Legend Double Dagger 7.8 7.1 95 7 18 16.1 99.73     Rain
12:00 Legend Double Dagger 8.5 7.9 96 9 16 16.1 99.61     Rain
13:00 Legend Double Dagger 9.3 8.2 93 8 21 24.1 99.52     Cloudy
14:00 Legend Double Dagger 10.5 9.3 92 8 18 24.1 99.43     LegendNANA
15:00 Legend Double Dagger 11.9 10.0 88 10 16 16.1 99.35     LegendNANA
16:00 Legend Double Dagger 11.1 9.4 89 9 17 24.1 99.32     Mostly Cloudy
17:00 Legend Double Dagger 10.8 9.4 91 10 17 16.1 99.27     LegendNANA
18:00 Legend Double Dagger 10.4 9.8 96 12 14 16.1 99.30     LegendNANA
19:00 Legend Double Dagger 10.6 10.2 97 10 8 16.1 99.27     Cloudy
20:00 Legend Double Dagger 10.4 10.0 97 4 11 12.9 99.25     LegendNANA
21:00 Legend Double Dagger 9.7 9.4 98 3 11 11.3 99.29     LegendNANA
22:00 Legend Double Dagger 9.4 9.1 98 8 4 11.3 99.34     Cloudy
23:00 Legend Double Dagger 9.0 9.0 100 36 1 12.9 99.40     LegendNANA

Notes on Data Quality.

Legend

  • E = Estimated
  • M = Missing
  • NA = Not Available
  • ‡ = Partner data that is not subject to review by the National Climate Archives
Date modified: